Simultaneous Nadir Overpasses (SNOs) Predictions

Prediction of SNOs between LANDSAT-8 and TERRA Satellite Orbit:

Table of predicted SNOs for the next 14.0 days since TLE Epoch: 2/18/2023
Index Date (LANDSAT-8) Time (LANDSAT-8) Lat,Lon (LANDSAT-8) SZA (LANDSAT-8 ) Date (TERRA) Time (TERRA) Lat,Lon (TERRA) SZA (TERRA ) Distance(km) Time Diff (sec)
1 03/01/2023 06:27:49 68.65, 77.63 76.43 03/01/2023 06:29:02 68.82, 76.66 76.64 43.63 73
2 03/01/2023 07:10:19 -80.25, -10.97 81.86 03/01/2023 07:11:30 -80.27, -11.11 81.84 3.14 71
3 03/01/2023 07:59:48 80.33, 155.97 98.01 03/01/2023 08:00:54 80.32, 156.06 98.07 1.90 66
4 03/01/2023 08:49:10 -80.19, -35.11 81.79 03/01/2023 08:50:13 -80.19, -35.16 81.75 1.08 63
5 03/01/2023 09:38:33 80.06, 133.62 98.40 03/01/2023 09:39:32 80.08, 133.50 98.42 2.80 59
6 03/01/2023 10:28:01 -80.12, -59.26 81.72 03/01/2023 10:28:56 -80.12, -59.22 81.67 0.98 55
7 03/01/2023 11:17:24 80.00, 109.46 98.47 03/01/2023 11:18:15 80.00, 109.42 98.50 0.74 51
8 03/01/2023 12:06:52 -80.06, -83.42 81.64 03/01/2023 12:07:39 -80.04, -83.29 81.58 3.04 47
9 03/01/2023 12:56:16 79.96, 85.00 98.49 03/01/2023 12:56:59 79.96, 85.06 98.54 1.32 43
10 03/01/2023 13:45:37 -79.78,-105.90 81.25 03/01/2023 13:46:17 -79.79,-105.98 81.24 1.65 40
11 03/01/2023 14:34:59 79.60, 63.03 98.99 03/01/2023 14:35:35 79.62, 62.88 98.98 3.37 36
12 03/01/2023 15:24:28 -79.71,-130.10 81.18 03/01/2023 15:25:00 -79.71,-130.08 81.15 0.41 32
13 03/01/2023 16:13:50 79.53, 38.81 99.06 03/01/2023 16:14:18 79.54, 38.76 99.07 1.31 28
14 03/01/2023 17:03:18 -79.60,-154.04 81.05 03/01/2023 17:03:42 -79.59,-153.94 81.02 2.47 24
15 03/01/2023 17:52:41 79.46, 14.60 99.13 03/01/2023 17:53:01 79.46, 14.63 99.16 0.76 20
16 03/01/2023 18:42:01 -79.22,-176.21 80.57 03/01/2023 18:42:18 -79.23,-176.30 80.57 2.21 17
17 03/01/2023 19:31:32 79.39, -9.63 99.21 03/01/2023 19:31:44 79.37, -9.51 99.24 2.82 12
18 03/01/2023 20:20:51 -79.11, 159.79 80.44 03/01/2023 20:21:00 -79.11, 159.78 80.43 0.14 9
19 03/01/2023 21:10:11 78.83, -30.95 99.91 03/01/2023 21:10:16 78.84, -31.02 99.90 1.84 5
20 03/01/2023 21:59:40 -78.95, 136.00 80.26 03/01/2023 21:59:41 -78.94, 136.08 80.24 1.93 1
21 03/01/2023 22:49:02 78.75, -55.23 99.98 03/01/2023 22:48:59 78.75, -55.22 99.98 0.24 3
22 03/01/2023 23:38:21 -78.46, 113.99 79.67 03/01/2023 23:38:15 -78.47, 113.89 79.70 2.74 6
23 03/02/2023 00:27:52 78.63, -79.29 100.11 03/02/2023 00:27:41 78.62, -79.20 100.12 2.31 11
24 03/02/2023 01:17:09 -78.25, 90.31 79.44 03/02/2023 01:16:55 -78.25, 90.29 79.46 0.67 14
25 03/02/2023 02:06:27 77.85,-100.23 101.02 03/02/2023 02:06:09 77.87,-100.31 100.98 2.32 18
26 03/02/2023 02:55:57 -78.03, 66.61 79.21 03/02/2023 02:55:35 -78.02, 66.65 79.22 1.41 22
27 03/02/2023 03:45:16 77.68,-124.19 101.20 03/02/2023 03:44:50 77.68,-124.19 101.17 0.23 26
28 03/02/2023 04:34:33 -77.27, 45.12 78.36 03/02/2023 04:34:04 -77.29, 45.02 78.41 3.24 29
29 03/02/2023 05:24:06 77.54,-148.35 101.32 03/02/2023 05:23:32 77.53,-148.29 101.31 1.87 34
30 03/02/2023 06:13:19 -76.95, 21.61 78.03 03/02/2023 06:12:42 -76.96, 21.58 78.07 1.15 37
31 03/02/2023 07:02:33 76.33,-168.60 102.64 03/02/2023 07:01:52 76.34,-168.68 102.58 2.71 41
32 03/02/2023 07:52:05 -76.62, -1.95 77.69 03/02/2023 07:51:20 -76.62, -1.93 77.73 0.95 45
33 03/02/2023 08:41:20 76.04, 167.59 102.93 03/02/2023 08:40:31 76.04, 167.57 102.87 0.58 49
34 03/02/2023 09:30:49 -76.24, -25.41 77.31 03/02/2023 09:29:56 -76.22, -25.33 77.33 3.05 53
35 03/02/2023 10:20:07 75.80, 143.60 103.16 03/02/2023 10:19:10 75.79, 143.64 103.11 1.55 57
36 03/02/2023 11:09:15 -74.91, -46.31 75.95 03/02/2023 11:08:15 -74.92, -46.34 76.02 1.55 60
37 03/02/2023 11:58:22 73.87, 123.81 105.09 03/02/2023 11:57:18 73.89, 123.74 105.00 2.93 64
38 03/02/2023 12:47:56 -74.30, -69.54 75.36 03/02/2023 12:46:48 -74.30, -69.52 75.42 0.58 68



Historial Predications of SNOs between LANDSAT-8 and TERRA
